Tracking 30009 objects as of 7-Dec-2024
HD Live streaming from Space Station
objects crossing your sky now

BEIDOU 2 G8

Track BEIDOU 2 G8 now!
BEIDOU 2 G8 is classified as:


NORAD ID: 44231
Int'l Code: 2019-027A
Perigee: 35,773.9 km
Apogee: 35,812.6 km
Inclination: 1.9 °
Period: 1,436.1 minutes
Semi major axis: 42164 km
RCS: Unknown
Launch date: May 17, 2019
Source: People's Republic of China (PRC)
Launch site: Xichang Space Center, China (XSC)
Your satellite tracking list
Your tracking list is empty




NASA's NSSDC Master Catalog

Two Line Element Set (TLE):
1 44231U 19027A   24341.97702257 -.00000230  00000-0  00000+0 0  9991
2 44231   1.9062  74.7577 0004589 197.6012 300.1786  1.00273551 20486
Source of the keplerian elements: AFSPC